WAT5467 LDSP-EDDS

Flight info

Callsign WAT5467
Flight time 1h 22m
Altitude 32000
Route ZDA DCT RAVNA DCT ULPIN DCT GIRDA DCT INGID DCT SBG DCT TITIG L173 MAH/N0388F240 L173 DODIL T127 TEKSI TEKSI1W
Aircraft A320/M-SDE3FGHIRWY/LB1

Departure

Time 2026-05-04 21:24
Airport Split Saint Jerome Airport (LDSP)

Arrival

Time 2026-05-04 22:46
Airport Stuttgart Airport (EDDS)
Time Latitude Longitude Altitude Speed Heading
2026-05-04 21:09 43.53692 16.29810 68 ft 0 kts 113°
2026-05-04 21:18 43.53696 16.29795 68 ft 4 kts 115°
2026-05-04 21:18 43.53709 16.29762 58 ft 4 kts 122°
2026-05-04 21:18 43.53720 16.29739 61 ft 1 kts 122°
2026-05-04 21:19 43.53722 16.29735 62 ft 0 kts 122°
2026-05-04 21:20 43.53714 16.29751 58 ft 7 kts 124°
2026-05-04 21:20 43.53686 16.29702 61 ft 12 kts 249°
2026-05-04 21:21 43.53690 16.29564 72 ft 14 kts 282°
2026-05-04 21:21 43.53698 16.29474 83 ft 9 kts 265°
2026-05-04 21:21 43.53636 16.29332 84 ft 19 kts 236°
2026-05-04 21:21 43.53553 16.29179 84 ft 23 kts 231°
2026-05-04 21:22 43.53380 16.28870 87 ft 46 kts 232°
2026-05-04 21:22 43.53217 16.28631 85 ft 16 kts 179°
2026-05-04 21:22 43.53169 16.28590 84 ft 2 kts 301°
2026-05-04 21:22 43.53195 16.28586 86 ft 9 kts 16°
2026-05-04 21:23 43.53249 16.28633 86 ft 10 kts 47°
2026-05-04 21:23 43.53372 16.28857 90 ft 62 kts 52°
2026-05-04 21:23 43.53763 16.29559 80 ft 120 kts 52°
2026-05-04 21:23 43.54369 16.30644 63 ft 163 kts 52°
2026-05-04 21:24 43.55082 16.31941 430 ft 172 kts 52°
2026-05-04 21:24 43.55635 16.33386 1020 ft 175 kts 77°
2026-05-04 21:24 43.55529 16.35104 1362 ft 188 kts 115°
2026-05-04 21:24 43.54660 16.36467 1847 ft 197 kts 151°
2026-05-04 21:25 43.53368 16.37219 2373 ft 206 kts 159°
2026-05-04 21:25 43.52065 16.37786 3343 ft 181 kts 164°
2026-05-04 21:25 43.50934 16.38268 4175 ft 170 kts 161°
2026-05-04 21:25 43.49760 16.38972 4596 ft 195 kts 155°
2026-05-04 21:26 43.48556 16.39823 5458 ft 198 kts 153°
2026-05-04 21:26 43.47243 16.40736 5912 ft 229 kts 160°
2026-05-04 21:26 43.45621 16.41120 6465 ft 244 kts 187°
2026-05-04 21:26 43.44007 16.40233 6865 ft 264 kts 220°
2026-05-04 21:27 43.42800 16.38278 7485 ft 273 kts 236°
2026-05-04 21:27 43.41823 16.36058 8223 ft 277 kts 239°
2026-05-04 21:27 43.40856 16.33748 9019 ft 280 kts 238°
2026-05-04 21:27 43.39833 16.31449 9790 ft 283 kts 236°
2026-05-04 21:28 43.38730 16.29166 10359 ft 294 kts 234°
2026-05-04 21:28 43.37499 16.26787 10529 ft 317 kts 233°
2026-05-04 21:28 43.36164 16.24270 10865 ft 331 kts 237°
2026-05-04 21:28 43.35371 16.21289 11443 ft 339 kts 264°
2026-05-04 21:29 43.35685 16.18074 12077 ft 346 kts 291°
2026-05-04 21:29 43.37027 16.15316 12733 ft 353 kts 313°
2026-05-04 21:29 43.38935 16.13165 13399 ft 357 kts 324°
2026-05-04 21:29 43.41051 16.11329 14043 ft 361 kts 327°
2026-05-04 21:30 43.43214 16.09537 14616 ft 364 kts 327°
2026-05-04 21:30 43.45349 16.07651 15168 ft 367 kts 324°
2026-05-04 21:30 43.47445 16.05616 15720 ft 370 kts 322°
2026-05-04 21:30 43.49505 16.03457 16255 ft 374 kts 320°
2026-05-04 21:31 43.53586 15.98927 17380 ft 380 kts 319°
2026-05-04 21:31 43.55641 15.96607 17930 ft 384 kts 319°
2026-05-04 21:31 43.57715 15.94274 18496 ft 387 kts 319°
2026-05-04 21:32 43.59820 15.91924 19008 ft 390 kts 320°
2026-05-04 21:32 43.61938 15.89573 19547 ft 392 kts 320°
2026-05-04 21:32 43.64075 15.87213 20097 ft 395 kts 320°
2026-05-04 21:32 43.66224 15.84840 20653 ft 397 kts 320°
2026-05-04 21:33 43.68385 15.82451 21192 ft 399 kts 320°
2026-05-04 21:33 43.70558 15.80047 21713 ft 401 kts 320°
2026-05-04 21:33 43.72740 15.77628 22220 ft 403 kts 320°
2026-05-04 21:33 43.74933 15.75192 22722 ft 405 kts 320°
2026-05-04 21:34 43.77134 15.72739 23215 ft 408 kts 320°
2026-05-04 21:34 43.79319 15.70305 23694 ft 410 kts 320°
2026-05-04 21:34 43.81548 15.67825 24098 ft 412 kts 320°
2026-05-04 21:34 43.83785 15.65331 24499 ft 414 kts 320°
2026-05-04 21:35 43.86027 15.62829 24872 ft 416 kts 320°
2026-05-04 21:35 43.88292 15.60298 25233 ft 418 kts 320°
2026-05-04 21:35 43.90561 15.57759 25620 ft 420 kts 320°
2026-05-04 21:35 43.92833 15.55212 26005 ft 422 kts 320°
2026-05-04 21:36 43.95121 15.52643 26369 ft 423 kts 320°
2026-05-04 21:36 43.97415 15.50063 26733 ft 425 kts 320°
2026-05-04 21:36 43.99715 15.47473 27094 ft 427 kts 319°
2026-05-04 21:36 44.02023 15.44875 27455 ft 428 kts 319°
2026-05-04 21:37 44.04346 15.42261 27820 ft 430 kts 319°
2026-05-04 21:37 44.06671 15.39641 28180 ft 432 kts 319°
2026-05-04 21:37 44.09011 15.37006 28522 ft 433 kts 319°
2026-05-04 21:37 44.11351 15.34359 28877 ft 435 kts 319°
2026-05-04 21:38 44.13689 15.31681 29221 ft 436 kts 318°
2026-05-04 21:38 44.16028 15.28976 29569 ft 438 kts 318°
2026-05-04 21:38 44.18372 15.26254 29965 ft 438 kts 318°
2026-05-04 21:38 44.20740 15.23501 30401 ft 437 kts 318°
2026-05-04 21:39 44.23036 15.20835 30818 ft 435 kts 318°
2026-05-04 21:39 44.25351 15.18150 31256 ft 432 kts 318°
2026-05-04 21:39 44.27629 15.15508 31706 ft 430 kts 318°
2026-05-04 21:39 44.29920 15.12848 32045 ft 428 kts 318°
2026-05-04 21:40 44.32229 15.10160 32128 ft 426 kts 318°
2026-05-04 21:40 44.36726 15.04916 32125 ft 423 kts 317°
2026-05-04 21:41 44.41243 14.99644 32127 ft 424 kts 318°
2026-05-04 21:41 44.45775 14.94355 32128 ft 425 kts 318°
2026-05-04 21:42 44.50314 14.89037 32136 ft 425 kts 317°
2026-05-04 21:42 44.54835 14.83720 32125 ft 425 kts 317°
2026-05-04 21:43 44.59363 14.78393 32131 ft 425 kts 317°
2026-05-04 21:43 44.63868 14.73072 32124 ft 425 kts 317°
2026-05-04 21:44 44.68402 14.67712 32126 ft 426 kts 318°
2026-05-04 21:44 44.73449 14.63330 32120 ft 430 kts 332°
2026-05-04 21:45 44.78807 14.59769 32092 ft 425 kts 332°
2026-05-04 21:45 44.84088 14.56202 32128 ft 421 kts 332°
2026-05-04 21:46 44.89479 14.52624 32119 ft 432 kts 332°
2026-05-04 21:46 44.94928 14.49018 32123 ft 433 kts 332°
2026-05-04 21:47 45.00372 14.45380 32115 ft 433 kts 332°
2026-05-04 21:47 45.05809 14.41714 32134 ft 433 kts 332°
2026-05-04 21:48 45.11252 14.38049 32121 ft 433 kts 332°
2026-05-04 21:48 45.16694 14.34370 32117 ft 434 kts 332°
2026-05-04 21:49 45.22148 14.30685 32110 ft 434 kts 332°
2026-05-04 21:49 45.24843 14.28890 32079 ft 421 kts 332°
2026-05-04 21:49 45.27462 14.27187 32125 ft 407 kts 333°
2026-05-04 21:49 45.29995 14.25536 32116 ft 393 kts 332°
2026-05-04 21:50 45.32411 14.23924 32115 ft 375 kts 331°
2026-05-04 21:50 45.36998 14.20805 32121 ft 355 kts 331°
2026-05-04 21:51 45.41288 14.17875 32123 ft 331 kts 331°
2026-05-04 21:51 45.43319 14.16496 32120 ft 317 kts 330°
2026-05-04 21:51 45.45272 14.15168 32089 ft 307 kts 330°
2026-05-04 21:51 45.47215 14.13842 31795 ft 312 kts 330°
2026-05-04 21:52 45.49183 14.12455 31459 ft 319 kts 329°
2026-05-04 21:52 45.51168 14.11008 31338 ft 319 kts 328°
2026-05-04 21:52 45.53103 14.09558 31423 ft 311 kts 327°
2026-05-04 21:53 45.56879 14.06633 31144 ft 312 kts 326°
2026-05-04 21:53 45.58786 14.05103 30840 ft 316 kts 326°
2026-05-04 21:53 45.60693 14.03548 30689 ft 313 kts 326°
2026-05-04 21:53 45.62559 14.02042 30524 ft 306 kts 327°
2026-05-04 21:54 45.64447 14.00495 30169 ft 324 kts 323°
2026-05-04 21:54 45.68293 13.96792 29917 ft 346 kts 318°
2026-05-04 21:54 45.70378 13.94813 29490 ft 372 kts 334°
2026-05-04 21:55 45.72945 13.93974 29497 ft 389 kts 359°
2026-05-04 21:55 45.77535 13.94850 29475 ft 411 kts
2026-05-04 21:55 45.80403 13.95500 29488 ft 423 kts
2026-05-04 21:56 45.84320 13.96384 29481 ft 438 kts
2026-05-04 21:56 45.90473 13.97766 29480 ft 456 kts
2026-05-04 21:57 45.95757 13.98950 29482 ft 460 kts
2026-05-04 21:57 46.02110 13.99921 29484 ft 457 kts 354°
2026-05-04 21:58 46.08348 13.98523 29485 ft 458 kts 348°
2026-05-04 21:58 46.14620 13.96958 29483 ft 456 kts 348°
2026-05-04 21:59 46.20866 13.95409 29479 ft 455 kts 348°
2026-05-04 21:59 46.27105 13.93860 29475 ft 455 kts 348°
2026-05-04 22:00 46.33343 13.92295 29466 ft 455 kts 348°
2026-05-04 22:00 46.36486 13.91519 29625 ft 459 kts 348°
2026-05-04 22:00 46.39618 13.90734 30178 ft 456 kts 348°
2026-05-04 22:00 46.42740 13.89949 30638 ft 454 kts 348°
2026-05-04 22:01 46.45845 13.89170 31061 ft 452 kts 348°
2026-05-04 22:01 46.48934 13.88397 31555 ft 449 kts 348°
2026-05-04 22:01 46.52009 13.87625 31963 ft 448 kts 347°
2026-05-04 22:01 46.55068 13.86854 32072 ft 446 kts 348°
2026-05-04 22:02 46.58118 13.86085 32081 ft 444 kts 348°
2026-05-04 22:02 46.64220 13.84536 32077 ft 445 kts 348°
2026-05-04 22:03 46.70326 13.82991 32080 ft 446 kts 348°
2026-05-04 22:03 46.76439 13.81447 32078 ft 445 kts 348°
2026-05-04 22:04 46.82540 13.79897 32075 ft 445 kts 348°
2026-05-04 22:04 46.88650 13.78335 32068 ft 446 kts 348°
2026-05-04 22:05 46.94724 13.76783 32069 ft 446 kts 348°
2026-05-04 22:05 47.00835 13.75221 32075 ft 447 kts 347°
2026-05-04 22:06 47.06960 13.73655 32057 ft 447 kts 347°
2026-05-04 22:06 47.13093 13.72079 32057 ft 448 kts 347°
2026-05-04 22:07 47.19240 13.70498 32057 ft 448 kts 347°
2026-05-04 22:07 47.25312 13.68575 32042 ft 445 kts 338°
2026-05-04 22:08 47.30737 13.64416 32042 ft 437 kts 321°
2026-05-04 22:08 47.35642 13.59118 31985 ft 436 kts 321°
2026-05-04 22:09 47.40568 13.53884 31983 ft 437 kts 321°
2026-05-04 22:09 47.45516 13.48643 31991 ft 437 kts 321°
2026-05-04 22:10 47.50449 13.43381 31990 ft 437 kts 321°
2026-05-04 22:10 47.55371 13.38098 31973 ft 438 kts 321°
2026-05-04 22:11 47.60272 13.32813 31965 ft 439 kts 321°
2026-05-04 22:11 47.65202 13.27483 31960 ft 439 kts 321°
2026-05-04 22:12 47.70131 13.22147 31961 ft 439 kts 321°
2026-05-04 22:12 47.74972 13.16897 31948 ft 439 kts 321°
2026-05-04 22:13 47.79648 13.11797 31951 ft 439 kts 321°
2026-05-04 22:13 47.83974 13.07088 31942 ft 439 kts 321°
2026-05-04 22:14 47.88715 13.01940 31940 ft 439 kts 321°
2026-05-04 22:14 47.93628 12.96564 31936 ft 440 kts 321°
2026-05-04 22:15 47.98189 12.90585 31939 ft 435 kts 306°
2026-05-04 22:15 48.01209 12.82883 31956 ft 428 kts 288°
2026-05-04 22:16 48.02386 12.76784 31951 ft 426 kts 282°
2026-05-04 22:19 48.03595 12.69648 31935 ft 427 kts 282°
2026-05-04 22:19 48.05035 12.61045 31933 ft 427 kts 282°
2026-05-04 22:20 48.06679 12.52567 31939 ft 429 kts 287°
2026-05-04 22:20 48.08679 12.44158 31944 ft 429 kts 287°
2026-05-04 22:21 48.10673 12.35737 31953 ft 429 kts 287°
2026-05-04 22:21 48.12646 12.27309 31957 ft 429 kts 287°
2026-05-04 22:22 48.14598 12.18867 31964 ft 429 kts 287°
2026-05-04 22:22 48.16180 12.10305 31963 ft 425 kts 275°
2026-05-04 22:23 48.16756 12.01498 31979 ft 425 kts 273°
2026-05-04 22:23 48.17327 11.92686 31969 ft 426 kts 273°
2026-05-04 22:24 48.17897 11.83851 31968 ft 426 kts 274°
2026-05-04 22:24 48.19122 11.75198 31838 ft 427 kts 282°
2026-05-04 22:24 48.19850 11.70851 31578 ft 422 kts 282°
2026-05-04 22:25 48.20546 11.66658 31335 ft 420 kts 282°
2026-05-04 22:25 48.21249 11.62401 31077 ft 418 kts 281°
2026-05-04 22:25 48.21942 11.58181 30839 ft 417 kts 281°
2026-05-04 22:25 48.22633 11.53967 30591 ft 416 kts 281°
2026-05-04 22:26 48.23321 11.49765 30346 ft 415 kts 281°
2026-05-04 22:26 48.24009 11.45564 30105 ft 414 kts 281°
2026-05-04 22:26 48.24693 11.41375 29833 ft 413 kts 281°
2026-05-04 22:26 48.25376 11.37200 29549 ft 411 kts 282°
2026-05-04 22:27 48.26330 11.33171 29268 ft 412 kts 292°
2026-05-04 22:27 48.27753 11.29448 28981 ft 412 kts 303°
2026-05-04 22:27 48.29590 11.26162 28514 ft 411 kts 312°
2026-05-04 22:27 48.31584 11.23106 28032 ft 408 kts 312°
2026-05-04 22:28 48.33568 11.20054 27569 ft 406 kts 311°
2026-05-04 22:28 48.35529 11.17024 27098 ft 404 kts 311°
2026-05-04 22:28 48.37483 11.13992 26647 ft 402 kts 311°
2026-05-04 22:28 48.39399 11.11009 26203 ft 400 kts 311°
2026-05-04 22:29 48.41349 11.07968 25763 ft 399 kts 311°
2026-05-04 22:29 48.43252 11.05001 25325 ft 397 kts 311°
2026-05-04 22:29 48.45166 11.02010 24887 ft 396 kts 311°
2026-05-04 22:29 48.47073 10.99029 24455 ft 395 kts 311°
2026-05-04 22:30 48.48981 10.96046 24013 ft 394 kts 311°
2026-05-04 22:30 48.50870 10.93076 23563 ft 394 kts 310°
2026-05-04 22:30 48.52752 10.90087 23088 ft 393 kts 310°
2026-05-04 22:30 48.54623 10.87093 22622 ft 390 kts 310°
2026-05-04 22:31 48.56478 10.84115 22156 ft 388 kts 310°
2026-05-04 22:31 48.58320 10.81152 21671 ft 386 kts 310°
2026-05-04 22:31 48.60156 10.78201 21210 ft 384 kts 310°
2026-05-04 22:31 48.61988 10.75282 20730 ft 382 kts 310°
2026-05-04 22:32 48.63822 10.72376 20250 ft 380 kts 310°
2026-05-04 22:32 48.65647 10.69490 19769 ft 379 kts 310°
2026-05-04 22:32 48.67460 10.66620 19277 ft 377 kts 310°
2026-05-04 22:32 48.69267 10.63753 18863 ft 373 kts 310°
2026-05-04 22:33 48.70966 10.60812 18382 ft 368 kts 301°
2026-05-04 22:33 48.72159 10.57419 17795 ft 362 kts 286°
2026-05-04 22:33 48.72715 10.53763 17305 ft 354 kts 272°
2026-05-04 22:33 48.72667 10.50079 16843 ft 348 kts 261°
2026-05-04 22:34 48.72371 10.46463 16390 ft 345 kts 260°
2026-05-04 22:34 48.72082 10.42921 15928 ft 342 kts 261°
2026-05-04 22:34 48.71791 10.39358 15490 ft 339 kts 260°
2026-05-04 22:34 48.71500 10.35825 15046 ft 337 kts 260°
2026-05-04 22:35 48.71209 10.32318 14605 ft 336 kts 260°
2026-05-04 22:35 48.70915 10.28807 14155 ft 334 kts 260°
2026-05-04 22:35 48.70625 10.25342 13714 ft 333 kts 260°
2026-05-04 22:35 48.70333 10.21874 13244 ft 331 kts 260°
2026-05-04 22:36 48.70043 10.18436 12795 ft 328 kts 260°
2026-05-04 22:36 48.69755 10.15033 12383 ft 325 kts 260°
2026-05-04 22:36 48.69470 10.11655 11961 ft 322 kts 260°
2026-05-04 22:36 48.69198 10.08302 11544 ft 321 kts 263°
2026-05-04 22:37 48.69282 10.04921 11142 ft 322 kts 276°
2026-05-04 22:37 48.69682 10.01594 10715 ft 321 kts 277°
2026-05-04 22:37 48.70084 9.98290 10307 ft 319 kts 277°
2026-05-04 22:37 48.70479 9.95019 10085 ft 311 kts 277°
2026-05-04 22:38 48.70860 9.91853 9962 ft 300 kts 277°
2026-05-04 22:38 48.71225 9.88802 9807 ft 291 kts 277°
2026-05-04 22:38 48.71583 9.85799 9482 ft 289 kts 277°
2026-05-04 22:38 48.71934 9.82833 8920 ft 286 kts 277°
2026-05-04 22:39 48.72283 9.79870 8276 ft 284 kts 277°
2026-05-04 22:39 48.72628 9.76929 7655 ft 282 kts 277°
2026-05-04 22:39 48.72970 9.74004 7032 ft 281 kts 278°
2026-05-04 22:39 48.73310 9.71112 6513 ft 277 kts 278°
2026-05-04 22:40 48.73639 9.68302 6017 ft 274 kts 278°
2026-05-04 22:40 48.73970 9.65479 5617 ft 267 kts 279°
2026-05-04 22:40 48.74282 9.62822 5554 ft 246 kts 279°
2026-05-04 22:40 48.74572 9.60355 5492 ft 234 kts 279°
2026-05-04 22:41 48.74852 9.57945 5401 ft 231 kts 279°
2026-05-04 22:41 48.75078 9.55568 5295 ft 224 kts 269°
2026-05-04 22:41 48.74825 9.53287 5051 ft 220 kts 253°
2026-05-04 22:41 48.74409 9.51069 4773 ft 219 kts 253°
2026-05-04 22:42 48.73996 9.48859 4482 ft 218 kts 254°
2026-05-04 22:42 48.73584 9.46654 4186 ft 217 kts 255°
2026-05-04 22:42 48.73177 9.44473 3916 ft 213 kts 255°
2026-05-04 22:42 48.72776 9.42331 3617 ft 209 kts 255°
2026-05-04 22:43 48.72390 9.40272 3350 ft 196 kts 256°
2026-05-04 22:43 48.72030 9.38354 3095 ft 181 kts 256°
2026-05-04 22:43 48.71708 9.36643 2866 ft 160 kts 257°
2026-05-04 22:43 48.71413 9.35074 2663 ft 151 kts 257°
2026-05-04 22:44 48.71130 9.33564 2464 ft 147 kts 257°
2026-05-04 22:44 48.70853 9.32087 2266 ft 146 kts 257°
2026-05-04 22:44 48.70577 9.30620 2069 ft 145 kts 256°
2026-05-04 22:44 48.70305 9.29172 1877 ft 145 kts 255°
2026-05-04 22:45 48.70039 9.27706 1707 ft 145 kts 255°
2026-05-04 22:45 48.69480 9.24790 1303 ft 143 kts 254°
2026-05-04 22:45 48.69212 9.23367 1215 ft 131 kts 254°
2026-05-04 22:46 48.68999 9.22252 1244 ft 88 kts 254°
2026-05-04 22:46 48.68874 9.21594 1258 ft 46 kts 254°
2026-05-04 22:46 48.68816 9.21226 1267 ft 28 kts 265°
2026-05-04 22:46 48.68832 9.20989 1270 ft 15 kts 283°
2026-05-04 22:47 48.68849 9.20897 1275 ft 7 kts 286°
2026-05-04 22:47 48.68859 9.20840 1270 ft 6 kts 284°
2026-05-04 22:47 48.68872 9.20769 1273 ft 9 kts 284°
2026-05-04 22:47 48.68871 9.20645 1278 ft 14 kts 250°
2026-05-04 22:48 48.68843 9.20509 1281 ft 13 kts 254°
2026-05-04 22:48 48.68818 9.20374 1283 ft 14 kts 254°
2026-05-04 22:48 48.68787 9.20215 1286 ft 18 kts 253°
2026-05-04 22:48 48.68757 9.20048 1290 ft 12 kts 262°
2026-05-04 22:49 48.68792 9.19953 1295 ft 11 kts 316°
2026-05-04 22:49 48.68856 9.19888 1300 ft 10 kts 343°
2026-05-04 22:49 48.68892 9.19829 1304 ft 6 kts 276°
2026-05-04 22:49 48.68876 9.19751 1306 ft 10 kts 252°
2026-05-04 22:50 48.68851 9.19618 1309 ft 16 kts 254°
2026-05-04 22:50 48.68821 9.19454 1312 ft 16 kts 254°
2026-05-04 22:50 48.68839 9.19372 1314 ft 8 kts 355°
2026-05-04 22:50 48.68885 9.19358 1315 ft 0 kts 344°